Hourly Data Report for June 06, 2021

FISHER BRANCH (AUT)
MANITOBA
Current Station Operator: ECCC - MSC

51°05'00.100" N
97°33'16.200" W
253.00 m
50309J6
71442
WSZ

Download Data

Hourly Data (June 2021)
Hourly Data Report for June 6, 2021
TIME
LST
Temp Definition
°C
Dew Point Definition
°C
Rel Hum Definition
%
Precip. Amount Definition
mm

Wind Dir Definition
10's deg

Wind Spd Definition
km/h
Visibility Definition
km
Stn Press Definition
kPa
Hmdx Definition


Wind Chill Definition


Weather Definition


00:00 21.4 15.0 67 0.0 20 8   96.40 25   LegendNANA
01:00 19.1 14.5 75 0.0 20 7   96.45     LegendNANA
02:00 15.1 12.5 84 0.0 17 7   96.48     LegendNANA
03:00 18.6 15.1 80 0.0 23 8   96.47     LegendNANA
04:00 19.4 14.6 74 0.0 25 16   96.62     LegendNANA
05:00 23.4 9.9 43 0.0 22 9   96.54 25   LegendNANA
06:00 19.6 13.3 67 0.0 18 8   96.46     LegendNANA
07:00 20.9 13.2 61 0.0 25 4   96.48     LegendNANA
08:00 21.3 13.7 62 0.0 24 11   96.63     LegendNANA
09:00 22.5 12.4 53 0.0 21 19   96.67 25   LegendNANA
10:00 21.9 13.3 58 0.0 20 27   96.58 25   LegendNANA
11:00 21.4 13.1 59 0.0 23 27   96.67     LegendNANA
12:00 20.1 14.0 68 0.0 24 12   96.65     LegendNANA
13:00 25.1 11.2 42 0.0 22 21   96.51 27   LegendNANA
14:00 26.3 5.7 27 0.0 24 31   96.54 26   LegendNANA
15:00 26.8 3.2 22 0.0 24 35   96.52 26   LegendNANA
16:00 26.9 5.9 26 0.0 26 32   96.61 27   LegendNANA
17:00 23.8 5.4 30 0.0 28 30   96.73     LegendNANA
18:00 21.4 7.0 39 0.0 28 25   96.90     LegendNANA
19:00 21.8 5.5 34 0.0 26 21   96.94     LegendNANA
20:00 20.9 5.7 37 0.0 25 15   96.98     LegendNANA
21:00 18.9 6.5 45 0.0 25 12   97.06     LegendNANA
22:00 18.5 6.7 46 0.0 25 16   97.13     LegendNANA
23:00 18.2 7.0 48 0.0 27 15   97.20     LegendNANA

Notes on Data Quality.

Legend

  • E = Estimated
  • M = Missing
  • NA = Not Available*
  • [empty] = Indicates an unobserved value
Date modified: